When you browse on this site, cookies collect data to enhance your experience and personalize the content and advertising you see.
Visit our Privacy Policy to learn more. By continuing to use the site, you agree to this use of cookies and data.
  • In Latvia
  • List of Countries
  • For 7 days
  • Water Temperature
  • Satellite Maps
  • Weather Map
  • Weather Widgets
  • user-avatar
    Login

    Hourly Weather Haradok

    Today, 21 April, Sunday

    Time Temperature Precipitation Wind Pressure Humidity
    00:00 +7°C° 0 mm 2 mps 754 mmHg 68%
    01:00 +7°C° 0 mm 2 mps 754 mmHg 70%
    02:00 +6°C° 0 mm 2 mps 754 mmHg 80%
    03:00 +5°C° 0 mm 2 mps 753 mmHg 83%
    04:00 +5°C° 0 mm 2 mps 753 mmHg 85%
    05:00 +3°C° 0 mm 3 mps 753 mmHg 88%
    06:00 +5°C° 0 mm 3 mps 753 mmHg 81%
    07:00 +6°C° 0 mm 4 mps 753 mmHg 74%
    08:00 +7°C° 0 mm 5 mps 754 mmHg 67%
    09:00 +9°C° 0 mm 5 mps 754 mmHg 62%
    10:00 +10°C° 0 mm 5 mps 754 mmHg 57%
    11:00 +13°C° 0 mm 5 mps 754 mmHg 52%
    12:00 +13°C° 0.3 mm 5 mps 754 mmHg 51%
    13:00 +14°C° 0.3 mm 4 mps 754 mmHg 49%
    14:00 +15°C° 0 mm 4 mps 754 mmHg 47%
    15:00 +15°C° 0.2 mm 4 mps 754 mmHg 47%
    16:00 +16°C° 0.2 mm 3 mps 754 mmHg 46%
    17:00 +16°C° 0.2 mm 3 mps 754 mmHg 45%
    18:00 +14°C° 0 mm 3 mps 755 mmHg 51%
    19:00 +12°C° 0 mm 3 mps 755 mmHg 57%
    20:00 +10°C° 0 mm 3 mps 755 mmHg 62%
    21:00 +10°C° 0 mm 2 mps 756 mmHg 64%
    22:00 +9°C° 0 mm 2 mps 756 mmHg 67%
    23:00 +8°C° 0 mm 2 mps 756 mmHg 69%

    Tomorrow, 22 April, Monday

    Time Temperature Precipitation Wind Pressure Humidity
    00:00 +8°C° 0 mm 2 mps 757 mmHg 70%
    01:00 +7°C° 0 mm 2 mps 757 mmHg 72%
    02:00 +7°C° 0 mm 2 mps 757 mmHg 73%
    03:00 +7°C° 0 mm 1 mps 757 mmHg 74%
    04:00 +7°C° 0 mm 1 mps 758 mmHg 76%
    05:00 +7°C° 0 mm 1 mps 758 mmHg 77%
    06:00 +9°C° 0 mm 1 mps 758 mmHg 69%
    07:00 +11°C° 0 mm 1 mps 759 mmHg 62%
    08:00 +13°C° 0 mm 1 mps 759 mmHg 55%
    09:00 +14°C° 0 mm 2 mps 759 mmHg 48%
    10:00 +15°C° 0 mm 2 mps 759 mmHg 40%
    11:00 +17°C° 0 mm 2 mps 759 mmHg 33%
    12:00 +17°C° 0 mm 2 mps 759 mmHg 32%
    13:00 +17°C° 0 mm 2 mps 759 mmHg 31%
    14:00 +18°C° 0 mm 2 mps 759 mmHg 30%
    15:00 +17°C° 0 mm 2 mps 759 mmHg 31%
    16:00 +17°C° 0 mm 2 mps 759 mmHg 32%
    17:00 +17°C° 0 mm 2 mps 759 mmHg 34%
    18:00 +15°C° 0 mm 2 mps 759 mmHg 39%
    19:00 +14°C° 0 mm 1 mps 759 mmHg 45%
    20:00 +12°C° 0 mm 1 mps 759 mmHg 50%
    21:00 +11°C° 0 mm 1 mps 759 mmHg 51%
    22:00 +11°C° 0 mm 1 mps 760 mmHg 53%
    23:00 +9°C° 0 mm 0 mps 760 mmHg 54%

    Day after tomorrow, 23 April, Tuesday

    Time Temperature Precipitation Wind Pressure Humidity
    00:00 +9°C° 0 mm 0 mps 760 mmHg 55%
    01:00 +8°C° 0 mm 0 mps 760 mmHg 55%
    02:00 +8°C° 0 mm 0 mps 760 mmHg 56%
    03:00 +7°C° 0 mm 0 mps 761 mmHg 58%
    04:00 +8°C° 0 mm 1 mps 761 mmHg 60%
    05:00 +8°C° 0 mm 1 mps 761 mmHg 61%
    06:00 +10°C° 0 mm 1 mps 761 mmHg 56%
    07:00 +12°C° 0 mm 1 mps 761 mmHg 52%
    08:00 +14°C° 0 mm 1 mps 761 mmHg 47%
    09:00 +15°C° 0 mm 1 mps 761 mmHg 43%
    10:00 +18°C° 0 mm 1 mps 761 mmHg 38%
    11:00 +18°C° 0 mm 2 mps 761 mmHg 34%
    12:00 +18°C° 0 mm 2 mps 761 mmHg 34%
    13:00 +18°C° 0 mm 2 mps 761 mmHg 34%
    14:00 +18°C° 0 mm 2 mps 760 mmHg 34%
    15:00 +18°C° 0 mm 2 mps 760 mmHg 35%
    16:00 +18°C° 0 mm 2 mps 760 mmHg 36%
    17:00 +18°C° 0 mm 2 mps 759 mmHg 37%
    18:00 +16°C° 0 mm 2 mps 759 mmHg 42%
    19:00 +14°C° 0 mm 1 mps 759 mmHg 48%
    20:00 +13°C° 0 mm 1 mps 759 mmHg 53%
    21:00 +12°C° 0 mm 1 mps 759 mmHg 54%
    22:00 +12°C° 0 mm 1 mps 760 mmHg 54%
    23:00 +11°C° 0 mm 1 mps 760 mmHg 55%

    24 April, Wednesday

    Time Temperature Precipitation Wind Pressure Humidity
    00:00 +11°C° 0 mm 1 mps 760 mmHg 57%
    01:00 +10°C° 0 mm 1 mps 760 mmHg 58%
    02:00 +10°C° 0 mm 1 mps 760 mmHg 60%
    03:00 +9°C° 0 mm 1 mps 760 mmHg 61%
    04:00 +9°C° 0 mm 1 mps 760 mmHg 62%
    05:00 +9°C° 0 mm 1 mps 760 mmHg 64%
    06:00 +10°C° 0 mm 1 mps 760 mmHg 59%
    07:00 +12°C° 0 mm 1 mps 761 mmHg 53%
    08:00 +14°C° 0 mm 1 mps 761 mmHg 48%
    09:00 +16°C° 0 mm 2 mps 761 mmHg 43%
    10:00 +17°C° 0 mm 2 mps 760 mmHg 39%
    11:00 +19°C° 0 mm 3 mps 760 mmHg 34%
    12:00 +19°C° 0 mm 3 mps 760 mmHg 34%
    13:00 +20°C° 0 mm 3 mps 760 mmHg 33%
    14:00 +20°C° 0 mm 3 mps 760 mmHg 33%
    15:00 +20°C° 0 mm 3 mps 759 mmHg 35%
    16:00 +20°C° 0 mm 3 mps 759 mmHg 36%
    17:00 +19°C° 0 mm 3 mps 759 mmHg 38%
    18:00 +17°C° 0 mm 3 mps 759 mmHg 44%
    19:00 +16°C° 0 mm 2 mps 759 mmHg 49%
    20:00 +14°C° 0 mm 2 mps 759 mmHg 55%
    21:00 +13°C° 0 mm 2 mps 759 mmHg 57%
    22:00 +12°C° 0 mm 2 mps 759 mmHg 58%
    23:00 +12°C° 0 mm 2 mps 759 mmHg 60%

    25 April, Thursday

    Time Temperature Precipitation Wind Pressure Humidity
    00:00 +10°C° 0 mm 2 mps 759 mmHg 61%
    01:00 +10°C° 0 mm 2 mps 759 mmHg 62%
    02:00 +9°C° 0 mm 2 mps 759 mmHg 64%
    03:00 +9°C° 0 mm 2 mps 759 mmHg 65%
    04:00 +9°C° 0 mm 2 mps 759 mmHg 67%
    05:00 +8°C° 0 mm 2 mps 759 mmHg 68%
    06:00 +10°C° 0 mm 2 mps 759 mmHg 64%
    07:00 +13°C° 0 mm 2 mps 759 mmHg 59%
    08:00 +15°C° 0 mm 2 mps 759 mmHg 54%
    09:00 +16°C° 0 mm 3 mps 759 mmHg 49%
    10:00 +18°C° 0 mm 4 mps 759 mmHg 44%
    11:00 +19°C° 0 mm 4 mps 759 mmHg 39%
    12:00 +20°C° 0 mm 4 mps 759 mmHg 39%
    13:00 +20°C° 0 mm 4 mps 758 mmHg 38%
    14:00 +21°C° 0 mm 4 mps 758 mmHg 37%
    15:00 +20°C° 0 mm 4 mps 757 mmHg 38%
    16:00 +20°C° 0 mm 4 mps 757 mmHg 40%
    17:00 +20°C° 0 mm 4 mps 757 mmHg 41%
    18:00 +18°C° 0 mm 3 mps 756 mmHg 48%
    19:00 +16°C° 0 mm 3 mps 756 mmHg 55%
    20:00 +13°C° 0 mm 3 mps 756 mmHg 62%
    21:00 +13°C° 0 mm 3 mps 756 mmHg 63%
    22:00 +12°C° 0 mm 3 mps 756 mmHg 63%
    23:00 +12°C° 0 mm 3 mps 756 mmHg 64%

    26 April, Friday

    Time Temperature Precipitation Wind Pressure Humidity
    00:00 +11°C° 0 mm 3 mps 755 mmHg 65%
    01:00 +11°C° 0 mm 3 mps 755 mmHg 66%
    02:00 +10°C° 0 mm 3 mps 755 mmHg 68%
    03:00 +10°C° 0 mm 3 mps 755 mmHg 70%
    04:00 +10°C° 0 mm 3 mps 754 mmHg 72%
    05:00 +9°C° 0 mm 3 mps 754 mmHg 73%
    06:00 +11°C° 0 mm 3 mps 754 mmHg 68%
    07:00 +13°C° 0 mm 4 mps 754 mmHg 62%
    08:00 +15°C° 0 mm 4 mps 753 mmHg 56%
    09:00 +16°C° 0 mm 5 mps 753 mmHg 50%
    10:00 +19°C° 0 mm 5 mps 753 mmHg 45%
    11:00 +20°C° 0 mm 6 mps 752 mmHg 39%
    12:00 +21°C° 0 mm 6 mps 752 mmHg 38%
    13:00 +21°C° 0 mm 5 mps 751 mmHg 37%
    14:00 +22°C° 0 mm 5 mps 751 mmHg 36%
    15:00 +22°C° 0 mm 5 mps 751 mmHg 38%
    16:00 +22°C° 0 mm 4 mps 750 mmHg 39%
    17:00 +22°C° 0 mm 4 mps 750 mmHg 40%
    18:00 +20°C° 0 mm 3 mps 750 mmHg 47%
    19:00 +18°C° 0 mm 3 mps 750 mmHg 53%
    20:00 +16°C° 0 mm 2 mps 750 mmHg 60%
    21:00 +15°C° 0 mm 2 mps 750 mmHg 63%
    22:00 +14°C° 0 mm 2 mps 750 mmHg 67%
    23:00 +14°C° 0 mm 1 mps 750 mmHg 70%
    Show more